Regional Weather Roundup
Issued by NWS

Home | Current Version | Previous Version | Graphics & Text | Print | Product List | Glossary On
Versions: 1 2 3 4 5 6 7 8 9 10 11 12 13 14 15 16 17 18 19 20 21 22 23 24 25 26 27 28 29 30 31 32 33 34 35 36 37 38 39 40 41 42 43 44 45 46 47 48 49 50
000
ASUS43 KDTX 250701
RWRMI
MICHIGAN HOURLY REGIONAL WEATHER ROUNDUP
NATIONAL WEATHER SERVICE DETROIT/PONTIAC MI
300 AM EDT FRI MAY 25 2018

NOTE: "FAIR" INDICATES FEW OR NO CLOUDS BELOW 12,000 FEET WITH NO
SIGNIFICANT WEATHER AND/OR OBSTRUCTION TO VISIBILITY.

MIZ047>049-052>055-059>063-066>070-074>076-081>083-250800-
SOUTHEAST LOWER MICHIGAN

CITY           SKY/WX    TMP DP  RH WIND       PRES   REMARKS
ADRIAN         FAIR      58  55  90 CALM      30.07F
ALMA           FAIR      56  55  94 S3        30.02F
ANN ARBOR      FAIR      52  52 100 CALM      30.06F FOG
BAD AXE        FAIR      61  51  70 S3        30.01F
CARO           FAIR      54  50  85 CALM      30.02F
DETROIT CITY   FAIR      62  49  62 SW5       30.06S
DETROIT        FAIR      62  51  67 CALM      30.06F
FLINT          FAIR      61  50  67 S6        30.03F
GROSSE ILE     FAIR      59  56  90 CALM      30.05F
HILLSDALE      FAIR      55  48  76 S3        30.06F
HOWELL         FAIR      62  51  68 S5        30.05F

CITY           SKY/WX    TMP DP  RH WIND       PRES   REMARKS
JACKSON        FAIR      56  51  84 CALM      30.05F
LAMBERTVILLE   FAIR      57  52  81 CALM      30.06S
LANSING        FAIR      62  50  64 SW5       30.04F
LAPEER         FAIR      53  52  95 CALM      30.04F
MASON          FAIR      60  52  75 CALM      30.05F
MONROE         FAIR      56  55  93 CALM      30.05F
MT. CLEMENS    FAIR      58  51  79 CALM        N/A
PONTIAC        FAIR      60  52  74 CALM      30.05F
PORT HOPE        N/A     67  51  56 SW6       29.98F
PORT HURON     FAIR      57  48  72 CALM      30.04F
TRI CITIES     FAIR      65  54  67 S8        30.01F
MIDLAND        FAIR      58  56  95 CALM      30.00F
TROY           FAIR      64  49  59 CALM      30.07F
SAGINAW HB     FAIR      61  50  67 SW9       30.01F
$$
MIZ043>046-050>051-056>058-064>065-071>073-077>080-250800-
SOUTHWEST LOWER MICHIGAN

CITY           SKY/WX    TMP DP  RH WIND       PRES   REMARKS
BATTLE CREEK   FAIR      60  52  74 S3        30.04F
BENTON HARBOR  FAIR      65  50  58 S5        30.01F
BIG RAPIDS     FAIR      56  53  91 CALM      30.00F
COLDWATER      FAIR      61  52  73 CALM      30.06F
FREMONT        FAIR      59  57  92 CALM      30.00F
HOLLAND        FAIR      62  53  72 S6        30.01F
GRAND RAPIDS   FAIR      61  55  81 S6        30.02F
IONIA          FAIR      60  51  71 S3        30.02F
KALAMAZOO      FAIR      63  52  67 S3        30.04F
LUDINGTON      FAIR      68  53  57 S6        29.97F
MARSHALL       FAIR      57  54  88 CALM      30.05F
MOUNT PLEASANT FAIR      60  58  93 CALM      30.00F
MUSKEGON       FAIR      61  54  77 SE3       30.00F
SOUTH HAVEN    FAIR      65  51  60 CALM      30.01F
$$
MIZ016>042-250800-
NORTHERN LOWER MICHIGAN

CITY           SKY/WX    TMP DP  RH WIND       PRES   REMARKS
ALPENA         FAIR      61  56  83 SW3       29.95F
BEAVER ISLAND  FAIR      52  44  72 W16G23    29.95R
BELLAIRE       FAIR      56  54  91 CALM      29.95F
CADILLAC       FAIR      57  52  82 CALM      29.99F
CHARLEVOIX     FAIR      69  48  46 S12       29.95F
FRANKFORT      FAIR      70  49  47 SW7       29.96F
GAYLORD        FAIR      64  49  57 SW8       29.97F
GRAYLING       FAIR      65  51  60 SW9       29.97F
HARBOR SPRINGS FAIR      65  49  56 CALM      29.93F
HOUGHTON LAKE  FAIR      67  53  61 VRB5      29.99F
MANISTEE       FAIR      55  52  89 E3        29.97F
OSCODA         FAIR      64  52  64 CALM      29.97F
PELLSTON       FAIR      70  49  47 SW8       29.92F
ROGERS CITY    FAIR      67  51  55 SW6       29.93F
TRAVERSE CITY  FAIR      70  50  49 VRB5      29.93F
$$
MIZ007>008-015-250800-
EASTERN UPPER MICHIGAN

CITY           SKY/WX    TMP DP  RH WIND       PRES   REMARKS
KINROSS        LGT RAIN  58  55  90 N3        29.95R
MACKINAC ISLAN FAIR      56  47  72 CALM      29.92F
NEWBERRY       FAIR      60  49  66 S6        29.90F
S. S. MARIE    MOCLDY    60  54  80 VRB3      29.92F
MUNISING         N/A     67  60  78 S7        29.85F
$$
MIZ004>006-011>014-085-250800-
CENTRAL UPPER MICHIGAN

CITY           SKY/WX    TMP DP  RH WIND       PRES   REMARKS
MANISTIQUE     FAIR      57  55  94 SW5       29.89F
ESCANABA       LGT RAIN  67  60  78 SW8       29.90F
MENOMINEE      FAIR      66  58  75 CALM      29.92F
SAWYER-GWINN   FAIR      64  60  88 W9        29.90R
$$
MIZ001>003-009>011-084-250800-
WESTERN UPPER MICHIGAN

CITY           SKY/WX    TMP DP  RH WIND       PRES   REMARKS
IRON MOUNTAIN  FAIR      64  63  96 S5        29.89F
HOUGHTON       CLOUDY    67  62  84 VRB7      29.82F
COPPER HARBOR    N/A     65  63  93 S10       29.81F
IRONWOOD       FAIR      69  62  78 SW9       29.83F
$$

ABBREVIATIONS USED IN REMARKS
   TC - TEMPERATURE IN CELSIUS
  WCI - WIND CHILL INDEX
   HX - HEAT INDEX
  VSB - VISIBILITY





USA.gov is the U.S. government's official web portal to all federal, state and local government web resources and services.